TimePDT,TemperatureF,Dew PointF,Humidity,Sea Level PressureIn,VisibilityMPH,Wind Direction,Wind SpeedMPH,Gust SpeedMPH,PrecipitationIn,Events,Conditions,WindDirDegrees,DateUTC
12:53 AM,50.0,48.0,93,30.09,8.0,Calm,Calm,-,N/A,,Overcast,0,2013-10-12 07:53:00
1:53 AM,50.0,48.0,93,30.10,8.0,SSE,3.5,-,N/A,,Overcast,160,2013-10-12 08:53:00
2:30 AM,50.0,46.4,87,30.08,9.0,Calm,Calm,-,N/A,,Overcast,0,2013-10-12 09:30:00
2:53 AM,50.0,48.0,93,30.10,8.0,Calm,Calm,-,0.00,,Overcast,0,2013-10-12 09:53:00
3:29 AM,50.0,48.2,94,30.08,7.0,Calm,Calm,-,0.00,Rain,Light Rain,0,2013-10-12 10:29:00
3:53 AM,50.0,48.0,93,30.09,4.0,Calm,Calm,-,0.01,Rain,Light Rain,0,2013-10-12 10:53:00
4:53 AM,50.0,48.9,96,30.10,5.0,Calm,Calm,-,0.03,Rain,Light Rain,0,2013-10-12 11:53:00
5:53 AM,48.9,48.9,100,30.10,4.0,Calm,Calm,-,0.01,Rain,Light Rain,0,2013-10-12 12:53:00
6:24 AM,48.2,48.2,100,30.09,4.0,Calm,Calm,-,0.00,Rain,Light Rain,0,2013-10-12 13:24:00
6:53 AM,48.9,48.9,100,30.11,5.0,Calm,Calm,-,0.01,Rain,Light Rain,0,2013-10-12 13:53:00
7:12 AM,48.2,48.2,100,30.09,5.0,Calm,Calm,-,0.00,Rain,Light Rain,0,2013-10-12 14:12:00
7:53 AM,48.9,48.0,97,30.12,6.0,Calm,Calm,-,0.00,Rain,Light Rain,0,2013-10-12 14:53:00
8:26 AM,50.0,48.2,94,30.11,5.0,Calm,Calm,-,0.01,Rain,Light Rain,0,2013-10-12 15:26:00
8:53 AM,50.0,48.0,93,30.12,6.0,Calm,Calm,-,0.01,,Overcast,0,2013-10-12 15:53:00
9:53 AM,51.1,48.9,92,30.13,7.0,Calm,Calm,-,N/A,,Overcast,0,2013-10-12 16:53:00
10:53 AM,52.0,48.0,86,30.13,9.0,Calm,Calm,-,N/A,,Mostly Cloudy,0,2013-10-12 17:53:00
11:23 AM,51.8,48.2,88,30.12,9.0,NW,4.6,-,N/A,,Overcast,320,2013-10-12 18:23:00
11:53 AM,53.1,48.9,86,30.14,7.0,NW,8.1,-,N/A,,Overcast,310,2013-10-12 18:53:00
12:21 PM,53.6,48.2,82,30.12,7.0,NW,6.9,-,N/A,,Overcast,310,2013-10-12 19:21:00
12:53 PM,53.1,48.0,83,30.14,9.0,NW,8.1,-,N/A,,Overcast,310,2013-10-12 19:53:00
1:53 PM,54.0,48.0,80,30.13,8.0,NW,9.2,-,N/A,,Mostly Cloudy,310,2013-10-12 20:53:00
2:00 PM,53.6,48.2,82,30.11,8.0,NW,9.2,-,N/A,,Overcast,310,2013-10-12 21:00:00
2:43 PM,55.4,46.4,72,30.11,9.0,WNW,5.8,-,N/A,,Overcast,300,2013-10-12 21:43:00
2:53 PM,55.0,48.0,77,30.13,9.0,NW,6.9,-,N/A,,Overcast,310,2013-10-12 21:53:00
3:07 PM,55.4,48.2,77,30.12,8.0,NW,6.9,-,N/A,,Mostly Cloudy,310,2013-10-12 22:07:00
3:53 PM,55.9,46.9,72,30.14,10.0,NW,10.4,-,N/A,,Clear,320,2013-10-12 22:53:00
4:53 PM,55.0,46.9,74,30.15,9.0,NW,9.2,-,N/A,,Partly Cloudy,320,2013-10-12 23:53:00
5:53 PM,55.0,46.0,72,30.17,10.0,NW,10.4,-,N/A,,Scattered Clouds,320,2013-10-13 00:53:00
6:53 PM,53.1,46.9,80,30.18,10.0,NNW,9.2,-,N/A,,Clear,330,2013-10-13 01:53:00
7:53 PM,52.0,48.0,86,30.19,10.0,NW,8.1,-,N/A,,Scattered Clouds,320,2013-10-13 02:53:00
8:11 PM,51.8,48.2,88,30.18,10.0,WNW,6.9,-,N/A,,Overcast,300,2013-10-13 03:11:00
8:50 PM,51.8,48.2,88,30.19,9.0,Calm,Calm,-,N/A,,Overcast,0,2013-10-13 03:50:00
8:53 PM,52.0,48.9,89,30.21,9.0,Calm,Calm,-,N/A,,Overcast,0,2013-10-13 03:53:00
9:53 PM,51.1,48.0,89,30.22,8.0,NNW,3.5,-,N/A,,Mostly Cloudy,340,2013-10-13 04:53:00
10:53 PM,48.9,46.9,93,30.23,6.0,Calm,Calm,-,N/A,,Clear,0,2013-10-13 05:53:00
11:53 PM,46.9,46.0,97,30.24,5.0,Calm,Calm,-,N/A,,Clear,0,2013-10-13 06:53:00